Погода в Дарганате

Погода в Дарганате : погода сейчас, прогноз погоды и архив. Всё, что Вы хотите узнать о погоде в Дарганате!

Хотите узнать прогноз погоды в Дарганате? Тогда Вам сюда: Погода в Дарганате

Поиск расширенной информации на нашем сайте:

Другие новости

Новости СМИ2

Главная страница сайта

Новости сайта

03.07.2017

Напоминаем, что на нашем специализированном сайте Метеоцентр.Азия вы можете получить высокодетализированные автоматические прогнозы погоды по пунктам России, СНГ и мира в авиационном формате (включающие направление и скорость ветра, видимость, явления погоды, количество и форму облачности, нижнюю и верхнюю границу облачности).


Погода в Дарганате - сегодня

Время (UTC), дата Ветер
(°,м/с) 
Видим.   Явления Облачность Т
(°С)
Тd
(°С)
f(%) Тe
(°С)
Pmin
(гПа)
dP
(гПа)
Po
(мм)
O2
(г/м3)
Тmin Tmax R s Состояние
почвы
18 14.08.18 320 (СЗ) 20000 м    ясно 
+23 +12.9 53 +28  1008.5  0.8  744  274    +35.9       
21 14.08.18 320 (СЗ) 20000 м    ясно 
+20.8 +14.3 66 +28  1008.4  -0.2  744  276           
00 15.08.18 290 (З) 20000 м    ясно 
+20.2 +13.8 67 +27  1008.5  0.1  744  276           
03 15.08.18 //0 (С) //  н/о    н/о 
                 
06 15.08.18 030 (СВ) 20000 м    ясно 
+34.2 +7.1 19 +34  1009.6  0.7  745  266  +20         
09 15.08.18 350 (С) 20000 м    ясно 
+36.7 +8.9 18 +37  1008.7  -0.8  745  263           
12 15.08.18 330 (СЗ) 20000 м    ясно 
+36.1 +12.9 25 +42  1007.6  -1  744  262           
15 15.08.18 330 (СЗ) 20000 м    ясно 
+29.3 +15.9 44 +40  1008.2  0.3  744  267    +37.7       
18 15.08.18 340 (С) 20000 м    ясно 
+24.6 +15.5 57 +34  1009.3  0.7  745  272    +37.7       
21 15.08.18 330 (СЗ) 20000 м    ясно 
+22.5 +16.8 70 +35  1009.2  -0.2  745  273           
00 16.08.18 320 (СЗ) 20000 м    ясно 
+20.8 +14.9 69 +29  1009.8  0.4  745  276           
03 16.08.18 330 (СЗ) 20000 м    ясно 
+24.2 +15.2 57 +33  1010.7  1.2  746  273           
06 16.08.18 320 (СЗ) 20000 м    ясно 
+32.6 +15.2 35 +42  1011.2  0.9  746  266  +20.3         
09 16.08.18 310 (СЗ) 20000 м    ясно 
+35.2 +15.1 30 +44  1009.9  -1.1  746  263           
12 16.08.18 010 (С) 20000 м    ясно 
+35.3 +14.3 28 +43  1009.3  -0.7  745  263           
15 16.08.18 360 (С) 20000 м    3/0 средняя 
[Ac cast]
+31.6 +9.3 25 +32  1009.7  0.3  745  268    +35.7       
18 16.08.18 010 (С) 20000 м    ясно 
+27.2 +8.5 31 +27  1010.6  0.6  746  272    +35.7       
21 16.08.18 330 (СЗ) 20000 м    ясно 
+22.2 +10.6 48 +24  1010.6  -0.2  746  276           
00 17.08.18 350 (С) 20000 м    ясно 
+20.7 +9.8 50 +22  1010.8  746  278           
03 17.08.18 020 (С) 20000 м    ясно 
+23.1 +12.6 52 +28  1011.2  0.6  746  275           
06 17.08.18 060 (СВ) 20000 м    ясно 
+31.2 +8.9 25 +31  1010.8  746  268  +19         
09 17.08.18 020 (С) 20000 м    ясно 
+34 +5 16 +34  1009  -1.6  745  266           
12 17.08.18 030 (СВ) 20000 м    ясно 
+33.8 +6.5 18 +34  1007.5  -1.4  744  266           
15 17.08.18 350 (С) 20000 м    ясно 
+27.4 +9.4 32 +28  1007.1  -0.8  743  271    +34.8       
18 17.08.18 010 (С) 20000 м    ясно 
+20.3 +11.2 56 +23  1007.8  0.3  743  277    +34.8       
Время (UTC), дата Ветер
(°,м/с) 
Видим.   Явления Облачность Т
(°С)
Тd
(°С)
f(%) Тe
(°С)
Pmin
(гПа)
dP
(гПа)
Po
(мм)
O2
(г/м3)
Тmin Tmax R s Состояние
почвы

Для получения пояснительной информации подведите курсор к названию столбца.

ПОГОДА в Дарганате - архив

Всё, что Вы хотите узнать о погоде в Дарганате - удобно и подробно!

Выберите нужную дату (начиная с 1 января 2015* года) и нажмите кнопку "Найти".
Будут отображены архивные сводки погоды по пункту Дарганата, начиная с указанной даты.


Отображать данные в формате CSV (для использования в таблицах Excel)


Внимание! Наш архив погоды предназначен исключительно для личного некоммерческого использования в познавательных целях. Если Вам необходимы официальные справки о состоянии погоды (для производственных, юридических, коммерческих и т.п. целей), обращайтесь в органы Росгидромета.

*Примечание: данная дата относится к архиву по метеостанциям СССР (Россия, СНГ, Балтия).
Архив по метеостанциям Зарубежной Европы и Азии (кроме Китая) хранится 10 дней, по другим регионам земного шара (Китай, Африка, Америка, Австралия, Океания) - 1 день.

Дарганата - район местоположения метеостанции


Название, широта, долгота, высота метеостанции:
Дарганата 40.5°ш. 62.3°д. 142 м над ур. моря [Туркменистан]

Дополнительная информация

В oтличие oт бoльшинства пoгoдных сайтoв мы публикуем пoдрoбную метеoинфoрмацию в детальнoм прoфессиoнальнoм фoрмате.

Характеристики температуры и влажнoсти вoздуха измеряются на высoте 2 м в тени вдали oт зданий и деревьев.
Скoрoсть ветра измеряется на высoте 10 м (на урoвне рoста челoвека скoрoсть ветра ниже в 1.5-2 раза). Если метеoстанция нахoдится в гoрoде или в лесу, тo скoрoсть ветра занижена на 2-4 м/с пo сравнению с oткрытым местoм. Скoрoсть ветра над акватoриями крупных рек и oзёр, а также на вершинах хoлмoв на 2-5 м/с выше, чем в oбычных услoвиях.
Атмoсфернoе давление в разных тoчках местнoсти мoжет значительнo oтличаться oт давления на метеoстанции, в зависимoсти oт услoвий рельефа (при пoдъёме на 10 м давление пoнижается примернo на 1 мм рт.ст.).